Year,Month,Day,Hour,Minute,Value (Times are PST for temperature in C)
2016,04,02,00,00,7.20
2016,04,02,00,01,7.20
2016,04,02,00,02,7.20
2016,04,02,00,03,7.20
2016,04,02,00,04,7.10
2016,04,02,00,05,7.10
2016,04,02,00,06,7.10
2016,04,02,00,07,7.10
2016,04,02,00,08,7.10
2016,04,02,00,09,7.10
2016,04,02,00,10,7.10
2016,04,02,00,11,7.10
2016,04,02,00,12,7.10
2016,04,02,00,13,7.20
2016,04,02,00,14,7.20
2016,04,02,00,15,7.30
2016,04,02,00,16,7.40
2016,04,02,00,17,7.40
2016,04,02,00,18,7.50
2016,04,02,00,19,7.50
2016,04,02,00,20,7.60
2016,04,02,00,21,7.60
2016,04,02,00,22,7.60
2016,04,02,00,23,7.60
2016,04,02,00,24,7.60
2016,04,02,00,25,7.60
2016,04,02,00,26,7.60
2016,04,02,00,27,7.70
2016,04,02,00,28,7.60
2016,04,02,00,29,7.60
2016,04,02,00,30,7.60
2016,04,02,00,31,7.60
2016,04,02,00,32,7.60
2016,04,02,00,33,7.60
2016,04,02,00,34,7.60
2016,04,02,00,35,7.50
2016,04,02,00,36,7.50
2016,04,02,00,37,7.50
2016,04,02,00,38,7.50
2016,04,02,00,39,7.50
2016,04,02,00,40,7.50
2016,04,02,00,41,7.50
2016,04,02,00,42,7.60
2016,04,02,00,43,7.60
2016,04,02,00,44,7.50
2016,04,02,00,45,7.50
2016,04,02,00,46,7.50
2016,04,02,00,47,7.50
2016,04,02,00,48,7.50
2016,04,02,00,49,7.40
2016,04,02,00,50,7.40
2016,04,02,00,51,7.40
2016,04,02,00,52,7.30
2016,04,02,00,53,7.30
2016,04,02,00,54,7.20
2016,04,02,00,55,7.20
2016,04,02,00,56,7.20
2016,04,02,00,57,7.10
2016,04,02,00,58,7.10
2016,04,02,00,59,7.10
2016,04,02,01,00,7.00
2016,04,02,01,01,7.00
2016,04,02,01,02,7.00
2016,04,02,01,03,6.90
2016,04,02,01,04,6.90
2016,04,02,01,05,6.90
2016,04,02,01,06,6.80
2016,04,02,01,07,6.80
2016,04,02,01,08,6.80
2016,04,02,01,09,6.70
2016,04,02,01,10,6.60
2016,04,02,01,11,6.50
2016,04,02,01,12,6.40
2016,04,02,01,13,6.30
2016,04,02,01,14,6.30
2016,04,02,01,15,6.20
2016,04,02,01,16,6.20
2016,04,02,01,17,6.10
2016,04,02,01,18,6.10
2016,04,02,01,19,6.20
2016,04,02,01,20,6.20
2016,04,02,01,21,6.20
2016,04,02,01,22,6.30
2016,04,02,01,23,6.30
2016,04,02,01,24,6.30
2016,04,02,01,25,6.30
2016,04,02,01,26,6.30
2016,04,02,01,27,6.20
2016,04,02,01,28,6.20
2016,04,02,01,29,6.10
2016,04,02,01,30,6.00
2016,04,02,01,31,6.00
2016,04,02,01,32,5.90
2016,04,02,01,33,5.90
2016,04,02,01,34,5.90
2016,04,02,01,35,5.90
2016,04,02,01,36,5.90
2016,04,02,01,37,5.90
2016,04,02,01,38,5.90
2016,04,02,01,39,5.90
2016,04,02,01,40,5.80
2016,04,02,01,41,5.80
2016,04,02,01,42,5.80
2016,04,02,01,43,5.80
2016,04,02,01,44,5.80
2016,04,02,01,45,5.70
2016,04,02,01,46,5.70
2016,04,02,01,47,5.70
2016,04,02,01,48,5.70
2016,04,02,01,49,5.70
2016,04,02,01,50,5.60
2016,04,02,01,51,5.60
2016,04,02,01,52,5.60
2016,04,02,01,53,5.60
2016,04,02,01,54,5.60
2016,04,02,01,55,5.50
2016,04,02,01,56,5.50
2016,04,02,01,57,5.50
2016,04,02,01,58,5.60
2016,04,02,01,59,5.60
2016,04,02,02,00,5.60
2016,04,02,02,01,5.50
2016,04,02,02,02,5.50
2016,04,02,02,03,5.50
2016,04,02,02,04,5.40
2016,04,02,02,05,5.40
2016,04,02,02,06,5.40
2016,04,02,02,07,5.30
2016,04,02,02,08,5.30
2016,04,02,02,09,5.30
2016,04,02,02,10,5.30
2016,04,02,02,11,5.30
2016,04,02,02,12,5.40
2016,04,02,02,13,5.40
2016,04,02,02,14,5.50
2016,04,02,02,15,5.50
2016,04,02,02,16,5.60
2016,04,02,02,17,5.60
2016,04,02,02,18,5.50
2016,04,02,02,19,5.50
2016,04,02,02,20,5.40
2016,04,02,02,21,5.30
2016,04,02,02,22,5.30
2016,04,02,02,23,5.30
2016,04,02,02,24,5.40
2016,04,02,02,25,5.40
2016,04,02,02,26,5.40
2016,04,02,02,27,5.50
2016,04,02,02,28,5.40
2016,04,02,02,29,5.40
2016,04,02,02,30,5.30
2016,04,02,02,31,5.30
2016,04,02,02,32,5.20
2016,04,02,02,33,5.10
2016,04,02,02,34,5.10
2016,04,02,02,35,5.10
2016,04,02,02,36,5.10
2016,04,02,02,37,5.00
2016,04,02,02,38,5.00
2016,04,02,02,39,5.00
2016,04,02,02,40,5.00
2016,04,02,02,41,5.20
2016,04,02,02,42,5.30
2016,04,02,02,43,5.40
2016,04,02,02,44,5.50
2016,04,02,02,45,5.50
2016,04,02,02,46,5.40
2016,04,02,02,47,5.40
2016,04,02,02,48,5.40
2016,04,02,02,49,5.40
2016,04,02,02,50,5.40
2016,04,02,02,51,5.50
2016,04,02,02,52,5.50
2016,04,02,02,53,5.50
2016,04,02,02,54,5.60
2016,04,02,02,55,5.60
2016,04,02,02,56,5.60
2016,04,02,02,57,5.50
2016,04,02,02,58,5.50
2016,04,02,02,59,5.40
2016,04,02,03,00,5.40
2016,04,02,03,01,5.30
2016,04,02,03,02,5.40
2016,04,02,03,03,5.30
2016,04,02,03,04,5.30
2016,04,02,03,05,5.30
2016,04,02,03,06,5.40
2016,04,02,03,07,5.60
2016,04,02,03,08,5.60
2016,04,02,03,09,5.70
2016,04,02,03,10,5.60
2016,04,02,03,11,5.60
2016,04,02,03,12,5.50
2016,04,02,03,13,5.40
2016,04,02,03,14,5.30
2016,04,02,03,15,5.30
2016,04,02,03,16,5.30
2016,04,02,03,17,5.30
2016,04,02,03,18,5.30
2016,04,02,03,19,5.30
2016,04,02,03,20,5.30
2016,04,02,03,21,5.20
2016,04,02,03,22,5.20
2016,04,02,03,23,5.20
2016,04,02,03,24,5.20
2016,04,02,03,25,5.20
2016,04,02,03,26,5.20
2016,04,02,03,27,5.30
2016,04,02,03,28,5.30
2016,04,02,03,29,5.30
2016,04,02,03,30,5.40
2016,04,02,03,31,5.40
2016,04,02,03,32,5.40
2016,04,02,03,33,5.40
2016,04,02,03,34,5.40
2016,04,02,03,35,5.50
2016,04,02,03,36,5.50
2016,04,02,03,37,5.60
2016,04,02,03,38,5.70
2016,04,02,03,39,5.80
2016,04,02,03,40,5.90
2016,04,02,03,41,6.00
2016,04,02,03,42,6.10
2016,04,02,03,43,6.30
2016,04,02,03,44,6.40
2016,04,02,03,45,6.40
2016,04,02,03,46,6.50
2016,04,02,03,47,6.60
2016,04,02,03,48,6.70
2016,04,02,03,49,6.80
2016,04,02,03,50,6.80
2016,04,02,03,51,6.90
2016,04,02,03,52,6.90
2016,04,02,03,53,6.90
2016,04,02,03,54,6.90
2016,04,02,03,55,6.80
2016,04,02,03,56,6.80
2016,04,02,03,57,6.70
2016,04,02,03,58,6.60
2016,04,02,03,59,6.60
2016,04,02,04,00,6.50
2016,04,02,04,01,6.40
2016,04,02,04,02,6.40
2016,04,02,04,03,6.40
2016,04,02,04,04,6.30
2016,04,02,04,05,6.20
2016,04,02,04,06,6.20
2016,04,02,04,07,6.10
2016,04,02,04,08,6.10
2016,04,02,04,09,6.00
2016,04,02,04,10,5.90
2016,04,02,04,11,5.90
2016,04,02,04,12,6.00
2016,04,02,04,13,5.90
2016,04,02,04,14,5.90
2016,04,02,04,15,5.90
2016,04,02,04,16,5.90
2016,04,02,04,17,5.80
2016,04,02,04,18,5.60
2016,04,02,04,19,5.60
2016,04,02,04,20,5.60
2016,04,02,04,21,5.50
2016,04,02,04,22,5.50
2016,04,02,04,23,5.40
2016,04,02,04,24,5.40
2016,04,02,04,25,5.40
2016,04,02,04,26,5.40
2016,04,02,04,27,5.40
2016,04,02,04,28,5.40
2016,04,02,04,29,5.30
2016,04,02,04,30,5.30
2016,04,02,04,31,5.30
2016,04,02,04,32,5.30
2016,04,02,04,33,5.30
2016,04,02,04,34,5.20
2016,04,02,04,35,5.20
2016,04,02,04,36,5.20
2016,04,02,04,37,5.10
2016,04,02,04,38,5.10
2016,04,02,04,39,5.10
2016,04,02,04,40,5.10
2016,04,02,04,41,5.10
2016,04,02,04,42,5.10
2016,04,02,04,43,5.00
2016,04,02,04,44,4.90
2016,04,02,04,45,4.90
2016,04,02,04,46,4.80
2016,04,02,04,47,4.80
2016,04,02,04,48,4.70
2016,04,02,04,49,4.70
2016,04,02,04,50,4.70
2016,04,02,04,51,4.70
2016,04,02,04,52,4.60
2016,04,02,04,53,4.70
2016,04,02,04,54,4.70
2016,04,02,04,55,4.70
2016,04,02,04,56,4.70
2016,04,02,04,57,4.70
2016,04,02,04,58,4.70
2016,04,02,04,59,4.70
2016,04,02,05,00,4.80
2016,04,02,05,01,4.80
2016,04,02,05,02,4.80
2016,04,02,05,03,4.80
2016,04,02,05,04,4.80
2016,04,02,05,05,4.80
2016,04,02,05,06,4.80
2016,04,02,05,07,4.70
2016,04,02,05,08,4.70
2016,04,02,05,09,4.80
2016,04,02,05,10,4.80
2016,04,02,05,11,4.80
2016,04,02,05,12,4.80
2016,04,02,05,13,4.80
2016,04,02,05,14,4.80
2016,04,02,05,15,4.80
2016,04,02,05,16,4.70
2016,04,02,05,17,4.70
2016,04,02,05,18,4.70
2016,04,02,05,19,4.70
2016,04,02,05,20,4.70
2016,04,02,05,21,4.70
2016,04,02,05,22,4.70
2016,04,02,05,23,4.70
2016,04,02,05,24,4.70
2016,04,02,05,25,4.70
2016,04,02,05,26,4.70
2016,04,02,05,27,4.70
2016,04,02,05,28,4.70
2016,04,02,05,29,4.70
2016,04,02,05,30,4.70
2016,04,02,05,31,4.70
2016,04,02,05,32,4.60
2016,04,02,05,33,4.60
2016,04,02,05,34,4.60
2016,04,02,05,35,4.60
2016,04,02,05,36,4.60
2016,04,02,05,37,4.60
2016,04,02,05,38,4.60
2016,04,02,05,39,4.60
2016,04,02,05,40,4.60
2016,04,02,05,41,4.60
2016,04,02,05,42,4.60
2016,04,02,05,43,4.60
2016,04,02,05,44,4.60
2016,04,02,05,45,4.60
2016,04,02,05,46,4.70
2016,04,02,05,47,4.70
2016,04,02,05,48,4.70
2016,04,02,05,49,4.60
2016,04,02,05,50,4.60
2016,04,02,05,51,4.50
2016,04,02,05,52,4.50
2016,04,02,05,53,4.40
2016,04,02,05,54,4.40
2016,04,02,05,55,4.40
2016,04,02,05,56,4.40
2016,04,02,05,57,4.30
2016,04,02,05,58,4.30
2016,04,02,05,59,4.30
2016,04,02,06,00,4.20
2016,04,02,06,01,4.20
2016,04,02,06,02,4.20
2016,04,02,06,03,4.10
2016,04,02,06,04,4.10
2016,04,02,06,05,4.10
2016,04,02,06,06,4.10
2016,04,02,06,07,4.10
2016,04,02,06,08,4.00
2016,04,02,06,09,4.00
2016,04,02,06,10,4.00
2016,04,02,06,11,3.90
2016,04,02,06,12,3.90
2016,04,02,06,13,3.90
2016,04,02,06,14,3.90
2016,04,02,06,15,3.90
2016,04,02,06,16,3.90
2016,04,02,06,17,3.90
2016,04,02,06,18,3.90
2016,04,02,06,19,3.90
2016,04,02,06,20,3.90
2016,04,02,06,21,3.80
2016,04,02,06,22,3.80
2016,04,02,06,23,3.80
2016,04,02,06,24,3.80
2016,04,02,06,25,3.90
2016,04,02,06,26,3.90
2016,04,02,06,27,4.00
2016,04,02,06,28,4.00
2016,04,02,06,29,4.10
2016,04,02,06,30,4.10
2016,04,02,06,31,4.10
2016,04,02,06,32,4.00
2016,04,02,06,33,4.00
2016,04,02,06,34,4.00
2016,04,02,06,35,4.00
2016,04,02,06,36,4.00
2016,04,02,06,37,3.90
2016,04,02,06,38,3.90
2016,04,02,06,39,3.90
2016,04,02,06,40,3.90
2016,04,02,06,41,3.80
2016,04,02,06,42,3.80
2016,04,02,06,43,3.80
2016,04,02,06,44,3.80
2016,04,02,06,45,3.80
2016,04,02,06,46,3.80
2016,04,02,06,47,3.80
2016,04,02,06,48,3.80
2016,04,02,06,49,3.90
2016,04,02,06,50,4.10
2016,04,02,06,51,4.30
2016,04,02,06,52,4.40
2016,04,02,06,53,4.50
2016,04,02,06,54,4.60
2016,04,02,06,55,4.50
2016,04,02,06,56,4.50
2016,04,02,06,57,4.40
2016,04,02,06,58,4.40
2016,04,02,06,59,4.50
2016,04,02,07,00,4.50
2016,04,02,07,01,4.60
2016,04,02,07,02,4.80
2016,04,02,07,03,4.90
2016,04,02,07,04,4.90
2016,04,02,07,05,4.90
2016,04,02,07,06,4.90
2016,04,02,07,07,4.90
2016,04,02,07,08,4.90
2016,04,02,07,09,4.90
2016,04,02,07,10,5.00
2016,04,02,07,11,5.00
2016,04,02,07,12,5.00
2016,04,02,07,13,5.00
2016,04,02,07,14,5.00
2016,04,02,07,15,5.00
2016,04,02,07,16,5.00
2016,04,02,07,17,5.10
2016,04,02,07,18,5.20
2016,04,02,07,19,5.30
2016,04,02,07,20,5.40
2016,04,02,07,21,5.50
2016,04,02,07,22,5.50
2016,04,02,07,23,5.50
2016,04,02,07,24,5.50
2016,04,02,07,25,5.50
2016,04,02,07,26,5.60
2016,04,02,07,27,5.70
2016,04,02,07,28,5.70
2016,04,02,07,29,5.70
2016,04,02,07,30,5.70
2016,04,02,07,31,5.70
2016,04,02,07,32,5.90
2016,04,02,07,33,5.90
2016,04,02,07,34,6.00
2016,04,02,07,35,6.10
2016,04,02,07,36,6.20
2016,04,02,07,37,6.30
2016,04,02,07,38,6.50
2016,04,02,07,39,6.60
2016,04,02,07,40,6.70
2016,04,02,07,41,6.80
2016,04,02,07,42,6.90
2016,04,02,07,43,7.00
2016,04,02,07,44,7.10
2016,04,02,07,45,7.20
2016,04,02,07,46,7.20
2016,04,02,07,47,7.30
2016,04,02,07,48,7.40
2016,04,02,07,49,7.40
2016,04,02,07,50,7.40
2016,04,02,07,51,7.40
2016,04,02,07,52,7.40
2016,04,02,07,53,7.30
2016,04,02,07,54,7.20
2016,04,02,07,55,7.10
2016,04,02,07,56,7.10
2016,04,02,07,57,7.00
2016,04,02,07,58,7.00
2016,04,02,07,59,6.90
2016,04,02,08,00,6.90
2016,04,02,08,01,7.00
2016,04,02,08,02,7.00
2016,04,02,08,03,7.00
2016,04,02,08,04,7.10
2016,04,02,08,05,7.10
2016,04,02,08,06,7.20
2016,04,02,08,07,7.20
2016,04,02,08,08,7.30
2016,04,02,08,09,7.30
2016,04,02,08,10,7.40
2016,04,02,08,11,7.40
2016,04,02,08,12,7.50
2016,04,02,08,13,7.60
2016,04,02,08,14,7.70
2016,04,02,08,15,7.70
2016,04,02,08,16,7.80
2016,04,02,08,17,7.90
2016,04,02,08,18,8.10
2016,04,02,08,19,8.20
2016,04,02,08,20,8.30
2016,04,02,08,21,8.30
2016,04,02,08,22,8.40
2016,04,02,08,23,8.40
2016,04,02,08,24,8.40
2016,04,02,08,25,8.50
2016,04,02,08,26,8.50
2016,04,02,08,27,8.60
2016,04,02,08,28,8.60
2016,04,02,08,29,8.70
2016,04,02,08,30,8.70
2016,04,02,08,31,8.80
2016,04,02,08,32,8.80
2016,04,02,08,33,8.80
2016,04,02,08,34,8.90
2016,04,02,08,35,8.90
2016,04,02,08,36,8.90
2016,04,02,08,37,9.00
2016,04,02,08,38,9.00
2016,04,02,08,39,9.10
2016,04,02,08,40,9.10
2016,04,02,08,41,9.10
2016,04,02,08,42,9.10
2016,04,02,08,43,9.20
2016,04,02,08,44,9.30
2016,04,02,08,45,9.30
2016,04,02,08,46,9.40
2016,04,02,08,47,9.40
2016,04,02,08,48,9.50
2016,04,02,08,49,9.60
2016,04,02,08,50,9.60
2016,04,02,08,51,9.70
2016,04,02,08,52,9.70
2016,04,02,08,53,9.70
2016,04,02,08,54,9.80
2016,04,02,08,55,9.80
2016,04,02,08,56,9.90
2016,04,02,08,57,9.90
2016,04,02,08,58,9.90
2016,04,02,08,59,9.90
2016,04,02,09,00,9.90
2016,04,02,09,01,9.90
2016,04,02,09,02,9.90
2016,04,02,09,03,9.90
2016,04,02,09,04,9.90
2016,04,02,09,05,9.90
2016,04,02,09,06,10.00
2016,04,02,09,07,10.00
2016,04,02,09,08,10.00
2016,04,02,09,09,10.10
2016,04,02,09,10,10.10
2016,04,02,09,11,10.20
2016,04,02,09,12,10.20
2016,04,02,09,13,10.30
2016,04,02,09,14,10.30
2016,04,02,09,15,10.30
2016,04,02,09,16,10.40
2016,04,02,09,17,10.40
2016,04,02,09,18,10.40
2016,04,02,09,19,10.40
2016,04,02,09,20,10.40
2016,04,02,09,21,10.40
2016,04,02,09,22,10.30
2016,04,02,09,23,10.30
2016,04,02,09,24,10.30
2016,04,02,09,25,10.30
2016,04,02,09,26,10.40
2016,04,02,09,27,10.40
2016,04,02,09,28,10.40
2016,04,02,09,29,10.40
2016,04,02,09,30,10.40
2016,04,02,09,31,10.50
2016,04,02,09,32,10.50
2016,04,02,09,33,10.60
2016,04,02,09,34,10.70
2016,04,02,09,35,10.70
2016,04,02,09,36,10.70
2016,04,02,09,37,10.70
2016,04,02,09,38,10.70
2016,04,02,09,39,10.70
2016,04,02,09,40,10.80
2016,04,02,09,41,10.90
2016,04,02,09,42,10.80
2016,04,02,09,43,10.80
2016,04,02,09,44,10.80
2016,04,02,09,45,10.80
2016,04,02,09,46,10.80
2016,04,02,09,47,10.80
2016,04,02,09,48,10.90
2016,04,02,09,49,11.00
2016,04,02,09,50,11.10
2016,04,02,09,51,11.10
2016,04,02,09,52,11.10
2016,04,02,09,53,11.20
2016,04,02,09,54,11.20
2016,04,02,09,55,11.20
2016,04,02,09,56,11.20
2016,04,02,09,57,11.20
2016,04,02,09,58,11.20
2016,04,02,09,59,11.20
2016,04,02,10,00,11.20
2016,04,02,10,01,11.20
2016,04,02,10,02,11.20
2016,04,02,10,03,11.20
2016,04,02,10,04,11.20
2016,04,02,10,05,11.20
2016,04,02,10,06,11.20
2016,04,02,10,07,11.20
2016,04,02,10,08,11.20
2016,04,02,10,09,11.20
2016,04,02,10,10,11.20
2016,04,02,10,11,11.20
2016,04,02,10,12,11.20
2016,04,02,10,13,11.30
2016,04,02,10,14,11.40
2016,04,02,10,15,11.40
2016,04,02,10,16,11.40
2016,04,02,10,17,11.40
2016,04,02,10,18,11.50
2016,04,02,10,19,11.50
2016,04,02,10,20,11.70
2016,04,02,10,21,11.70
2016,04,02,10,22,11.80
2016,04,02,10,23,11.80
2016,04,02,10,24,11.80
2016,04,02,10,25,11.80
2016,04,02,10,26,11.90
2016,04,02,10,27,11.90
2016,04,02,10,28,11.90
2016,04,02,10,29,11.80
2016,04,02,10,30,11.80
2016,04,02,10,31,11.90
2016,04,02,10,32,11.90
2016,04,02,10,33,11.90
2016,04,02,10,34,11.90
2016,04,02,10,35,11.90
2016,04,02,10,36,11.90
2016,04,02,10,37,11.90
2016,04,02,10,38,11.80
2016,04,02,10,39,11.70
2016,04,02,10,40,11.70
2016,04,02,10,41,11.60
2016,04,02,10,42,11.70
2016,04,02,10,43,11.70
2016,04,02,10,44,11.60
2016,04,02,10,45,11.60
2016,04,02,10,46,11.60
2016,04,02,10,47,11.60
2016,04,02,10,48,11.50
2016,04,02,10,49,11.50
2016,04,02,10,50,11.40
2016,04,02,10,51,11.30
2016,04,02,10,52,11.40
2016,04,02,10,53,11.50
2016,04,02,10,54,11.60
2016,04,02,10,55,11.80
2016,04,02,10,56,11.90
2016,04,02,10,57,12.00
2016,04,02,10,58,12.10
2016,04,02,10,59,12.20
2016,04,02,11,00,12.30
2016,04,02,11,01,12.40
2016,04,02,11,02,12.40
2016,04,02,11,03,12.30
2016,04,02,11,04,12.10
2016,04,02,11,05,12.00
2016,04,02,11,06,11.90
2016,04,02,11,07,11.90
2016,04,02,11,08,11.80
2016,04,02,11,09,11.90
2016,04,02,11,10,11.90
2016,04,02,11,11,11.90
2016,04,02,11,12,11.80
2016,04,02,11,13,11.80
2016,04,02,11,14,11.80
2016,04,02,11,15,11.80
2016,04,02,11,16,11.70
2016,04,02,11,17,11.70
2016,04,02,11,18,11.70
2016,04,02,11,19,11.60
2016,04,02,11,20,11.60
2016,04,02,11,21,11.60
2016,04,02,11,22,11.70
2016,04,02,11,23,11.70
2016,04,02,11,24,11.80
2016,04,02,11,25,11.90
2016,04,02,11,26,12.00
2016,04,02,11,27,12.00
2016,04,02,11,28,12.10
2016,04,02,11,29,12.10
2016,04,02,11,30,12.10
2016,04,02,11,31,12.00
2016,04,02,11,32,12.10
2016,04,02,11,33,12.10
2016,04,02,11,34,12.20
2016,04,02,11,35,12.30
2016,04,02,11,36,12.40
2016,04,02,11,37,12.50
2016,04,02,11,38,12.50
2016,04,02,11,39,12.60
2016,04,02,11,40,12.60
2016,04,02,11,41,12.60
2016,04,02,11,42,12.60
2016,04,02,11,43,12.60
2016,04,02,11,44,12.60
2016,04,02,11,45,12.60
2016,04,02,11,46,12.70
2016,04,02,11,47,12.80
2016,04,02,11,48,12.80
2016,04,02,11,49,12.90
2016,04,02,11,50,13.00
2016,04,02,11,51,13.10
2016,04,02,11,52,13.10
2016,04,02,11,53,13.10
2016,04,02,11,54,13.00
2016,04,02,11,55,12.90
2016,04,02,11,56,12.80
2016,04,02,11,57,12.80
2016,04,02,11,58,12.70
2016,04,02,11,59,12.70
2016,04,02,12,00,12.70
2016,04,02,12,01,12.70
2016,04,02,12,02,12.70
2016,04,02,12,03,12.80
2016,04,02,12,04,12.80
2016,04,02,12,05,12.90
2016,04,02,12,06,13.00
2016,04,02,12,07,13.10
2016,04,02,12,08,13.10
2016,04,02,12,09,13.20
2016,04,02,12,10,13.30
2016,04,02,12,11,13.30
2016,04,02,12,12,13.30
2016,04,02,12,13,13.30
2016,04,02,12,14,13.30
2016,04,02,12,15,13.30
2016,04,02,12,16,13.30
2016,04,02,12,17,13.30
2016,04,02,12,18,13.30
2016,04,02,12,19,13.30
2016,04,02,12,20,13.20
2016,04,02,12,21,13.30
2016,04,02,12,22,13.40
2016,04,02,12,23,13.40
2016,04,02,12,24,13.40
2016,04,02,12,25,13.40
2016,04,02,12,26,13.40
2016,04,02,12,27,13.40
2016,04,02,12,28,13.40
2016,04,02,12,29,13.40
2016,04,02,12,30,13.40
2016,04,02,12,31,13.50
2016,04,02,12,32,13.50
2016,04,02,12,33,13.60
2016,04,02,12,34,13.60
2016,04,02,12,35,13.70
2016,04,02,12,36,13.70
2016,04,02,12,37,13.70
2016,04,02,12,38,13.70
2016,04,02,12,39,13.60
2016,04,02,12,40,13.60
2016,04,02,12,41,13.60
2016,04,02,12,42,13.70
2016,04,02,12,43,13.70
2016,04,02,12,44,13.80
2016,04,02,12,45,13.90
2016,04,02,12,46,14.00
2016,04,02,12,47,14.00
2016,04,02,12,48,14.00
2016,04,02,12,49,13.90
2016,04,02,12,50,13.90
2016,04,02,12,51,13.90
2016,04,02,12,52,13.80
2016,04,02,12,53,13.80
2016,04,02,12,54,13.70
2016,04,02,12,55,13.70
2016,04,02,12,56,13.70
2016,04,02,12,57,13.70
2016,04,02,12,58,13.80
2016,04,02,12,59,13.90
2016,04,02,13,00,13.90
2016,04,02,13,01,13.80
2016,04,02,13,02,13.70
2016,04,02,13,03,13.50
2016,04,02,13,04,13.40
2016,04,02,13,05,13.40
2016,04,02,13,06,13.30
2016,04,02,13,07,13.30
2016,04,02,13,08,13.30
2016,04,02,13,09,13.40
2016,04,02,13,10,13.40
2016,04,02,13,11,13.50
2016,04,02,13,12,13.60
2016,04,02,13,13,13.50
2016,04,02,13,14,13.60
2016,04,02,13,15,13.60
2016,04,02,13,16,13.60
2016,04,02,13,17,13.60
2016,04,02,13,18,13.60
2016,04,02,13,19,13.70
2016,04,02,13,20,13.80
2016,04,02,13,21,13.80
2016,04,02,13,22,13.90
2016,04,02,13,23,13.90
2016,04,02,13,24,13.80
2016,04,02,13,25,13.80
2016,04,02,13,26,13.80
2016,04,02,13,27,13.80
2016,04,02,13,28,13.80
2016,04,02,13,29,13.90
2016,04,02,13,30,13.90
2016,04,02,13,31,13.90
2016,04,02,13,32,14.00
2016,04,02,13,33,13.90
2016,04,02,13,34,13.90
2016,04,02,13,35,13.90
2016,04,02,13,36,13.90
2016,04,02,13,37,14.00
2016,04,02,13,38,14.00
2016,04,02,13,39,14.10
2016,04,02,13,40,14.10
2016,04,02,13,41,14.10
2016,04,02,13,42,14.10
2016,04,02,13,43,14.00
2016,04,02,13,44,14.00
2016,04,02,13,45,14.00
2016,04,02,13,46,14.00
2016,04,02,13,47,14.10
2016,04,02,13,48,14.10
2016,04,02,13,49,14.10
2016,04,02,13,50,14.10
2016,04,02,13,51,14.10
2016,04,02,13,52,14.20
2016,04,02,13,53,14.20
2016,04,02,13,54,14.30
2016,04,02,13,55,14.30
2016,04,02,13,56,14.30
2016,04,02,13,57,14.40
2016,04,02,13,58,14.40
2016,04,02,13,59,14.30
2016,04,02,14,00,14.40
2016,04,02,14,01,14.40
2016,04,02,14,02,14.40
2016,04,02,14,03,14.40
2016,04,02,14,04,14.40
2016,04,02,14,05,14.40
2016,04,02,14,06,14.40
2016,04,02,14,07,14.40
2016,04,02,14,08,14.40
2016,04,02,14,09,14.40
2016,04,02,14,10,14.40
2016,04,02,14,11,14.40
2016,04,02,14,12,14.50
2016,04,02,14,13,14.50
2016,04,02,14,14,14.60
2016,04,02,14,15,14.60
2016,04,02,14,16,14.70
2016,04,02,14,17,14.70
2016,04,02,14,18,14.80
2016,04,02,14,19,14.80
2016,04,02,14,20,14.90
2016,04,02,14,21,14.90
2016,04,02,14,22,14.90
2016,04,02,14,23,14.90
2016,04,02,14,24,14.90
2016,04,02,14,25,14.80
2016,04,02,14,26,14.70
2016,04,02,14,27,14.50
2016,04,02,14,28,14.30
2016,04,02,14,29,14.20
2016,04,02,14,30,14.10
2016,04,02,14,31,14.00
2016,04,02,14,32,13.90
2016,04,02,14,33,13.90
2016,04,02,14,34,14.00
2016,04,02,14,35,14.00
2016,04,02,14,36,13.90
2016,04,02,14,37,13.80
2016,04,02,14,38,13.80
2016,04,02,14,39,13.80
2016,04,02,14,40,13.80
2016,04,02,14,41,13.90
2016,04,02,14,42,14.10
2016,04,02,14,43,14.20
2016,04,02,14,44,14.40
2016,04,02,14,45,14.50
2016,04,02,14,46,14.60
2016,04,02,14,47,14.70
2016,04,02,14,48,14.80
2016,04,02,14,49,14.90
2016,04,02,14,50,14.90
2016,04,02,14,51,15.00
2016,04,02,14,52,15.10
2016,04,02,14,53,15.10
2016,04,02,14,54,15.20
2016,04,02,14,55,15.20
2016,04,02,14,56,15.20
2016,04,02,14,57,15.30
2016,04,02,14,58,15.30
2016,04,02,14,59,15.20
2016,04,02,15,00,15.10
2016,04,02,15,01,15.00
2016,04,02,15,02,14.90
2016,04,02,15,03,14.70
2016,04,02,15,04,14.50
2016,04,02,15,05,14.40
2016,04,02,15,06,14.40
2016,04,02,15,07,14.40
2016,04,02,15,08,14.40
2016,04,02,15,09,14.40
2016,04,02,15,10,14.40
2016,04,02,15,11,14.30
2016,04,02,15,12,14.20
2016,04,02,15,13,14.10
2016,04,02,15,14,14.10
2016,04,02,15,15,14.20
2016,04,02,15,16,14.30
2016,04,02,15,17,14.30
2016,04,02,15,18,14.40
2016,04,02,15,19,14.50
2016,04,02,15,20,14.60
2016,04,02,15,21,14.70
2016,04,02,15,22,14.60
2016,04,02,15,23,14.50
2016,04,02,15,24,14.40
2016,04,02,15,25,14.30
2016,04,02,15,26,14.30
2016,04,02,15,27,14.30
2016,04,02,15,28,14.30
2016,04,02,15,29,14.30
2016,04,02,15,30,14.30
2016,04,02,15,31,14.30
2016,04,02,15,32,14.20
2016,04,02,15,33,14.20
2016,04,02,15,34,14.20
2016,04,02,15,35,14.10
2016,04,02,15,36,14.10
2016,04,02,15,37,14.10
2016,04,02,15,38,14.10
2016,04,02,15,39,14.30
2016,04,02,15,40,14.40
2016,04,02,15,41,14.50
2016,04,02,15,42,14.50
2016,04,02,15,43,14.50
2016,04,02,15,44,14.50
2016,04,02,15,45,14.50
2016,04,02,15,46,14.50
2016,04,02,15,47,14.60
2016,04,02,15,48,14.70
2016,04,02,15,49,14.70
2016,04,02,15,50,14.70
2016,04,02,15,51,14.60
2016,04,02,15,52,14.60
2016,04,02,15,53,14.50
2016,04,02,15,54,14.40
2016,04,02,15,55,14.50
2016,04,02,15,56,14.50
2016,04,02,15,57,14.60
2016,04,02,15,58,14.60
2016,04,02,15,59,14.60
2016,04,02,16,00,14.50
2016,04,02,16,01,14.50
2016,04,02,16,02,14.40
2016,04,02,16,03,14.50
2016,04,02,16,04,14.60
2016,04,02,16,05,14.60
2016,04,02,16,06,14.70
2016,04,02,16,07,14.80
2016,04,02,16,08,14.80
2016,04,02,16,09,14.80
2016,04,02,16,10,14.70
2016,04,02,16,11,14.70
2016,04,02,16,12,14.60
2016,04,02,16,13,14.40
2016,04,02,16,14,14.30
2016,04,02,16,15,14.20
2016,04,02,16,16,14.10
2016,04,02,16,17,14.10
2016,04,02,16,18,14.10
2016,04,02,16,19,14.20
2016,04,02,16,20,14.20
2016,04,02,16,21,14.20
2016,04,02,16,22,14.30
2016,04,02,16,23,14.30
2016,04,02,16,24,14.30
2016,04,02,16,25,14.30
2016,04,02,16,26,14.30
2016,04,02,16,27,14.30
2016,04,02,16,28,14.30
2016,04,02,16,29,14.30
2016,04,02,16,30,14.30
2016,04,02,16,31,14.30
2016,04,02,16,32,14.40
2016,04,02,16,33,14.40
2016,04,02,16,34,14.40
2016,04,02,16,35,14.30
2016,04,02,16,36,14.30
2016,04,02,16,37,14.20
2016,04,02,16,38,14.20
2016,04,02,16,39,14.20
2016,04,02,16,40,14.10
2016,04,02,16,41,14.10
2016,04,02,16,42,14.10
2016,04,02,16,43,14.10
2016,04,02,16,44,14.20
2016,04,02,16,45,14.20
2016,04,02,16,46,14.20
2016,04,02,16,47,14.10
2016,04,02,16,48,14.20
2016,04,02,16,49,14.20
2016,04,02,16,50,14.10
2016,04,02,16,51,14.00
2016,04,02,16,52,14.00
2016,04,02,16,53,14.00
2016,04,02,16,54,14.00
2016,04,02,16,55,13.90
2016,04,02,16,56,13.80
2016,04,02,16,57,13.80
2016,04,02,16,58,13.80
2016,04,02,16,59,13.80
2016,04,02,17,00,13.80
2016,04,02,17,01,13.90
2016,04,02,17,02,13.90
2016,04,02,17,03,13.90
2016,04,02,17,04,14.00
2016,04,02,17,05,14.00
2016,04,02,17,06,14.00
2016,04,02,17,07,14.00
2016,04,02,17,08,14.10
2016,04,02,17,09,14.10
2016,04,02,17,10,14.20
2016,04,02,17,11,14.10
2016,04,02,17,12,14.10
2016,04,02,17,13,14.10
2016,04,02,17,14,14.10
2016,04,02,17,15,14.10
2016,04,02,17,16,14.00
2016,04,02,17,17,13.90
2016,04,02,17,18,13.80
2016,04,02,17,19,13.70
2016,04,02,17,20,13.70
2016,04,02,17,21,13.60
2016,04,02,17,22,13.60
2016,04,02,17,23,13.60
2016,04,02,17,24,13.70
2016,04,02,17,25,13.70
2016,04,02,17,26,13.70
2016,04,02,17,27,13.60
2016,04,02,17,28,13.60
2016,04,02,17,29,13.60
2016,04,02,17,30,13.50
2016,04,02,17,31,13.50
2016,04,02,17,32,13.50
2016,04,02,17,33,13.40
2016,04,02,17,34,13.40
2016,04,02,17,35,13.30
2016,04,02,17,36,13.30
2016,04,02,17,37,13.20
2016,04,02,17,38,13.20
2016,04,02,17,39,13.20
2016,04,02,17,40,13.10
2016,04,02,17,41,13.10
2016,04,02,17,42,13.00
2016,04,02,17,43,13.00